Regional Weather Roundup
Issued by NWS Northern Indiana

Home | Current Version | Previous Version | Graphics & Text | Print | Product List | Glossary On
Versions: 1 2 3 4 5 6 7 8 9 10 11 12 13 14 15 16 17 18 19 20 21 22 23 24 25 26 27 28 29 30 31 32 33 34 35 36 37 38 39 40 41 42 43 44 45 46 47 48 49 50
000
ASUS43 KIWX 211000
RWRIWX

KIWX WEATHER ROUNDUP
NATIONAL WEATHER SERVICE NORTHERN INDIANA
500 AM EST SUN DEC 21 2014

NOTE: "FAIR" INDICATES FEW OR NO CLOUDS BELOW 12,000 FEET WITH NO
SIGNIFICANT WEATHER AND/OR OBSTRUCTIONS TO VISIBILITY.

* THESE STATIONS ARE NOT UNDER NWS QUALITY CONTROL. THEY ALSO MAY NOT
  REPORT WEATHER SUCH AS PRECIPITATION OR FOG.

INZ001>027-211100-
NORTHERN INDIANA

CITY           SKY/WX    TMP DP  RH WIND       PRES   REMARKS
KNOX*          CLOUDY    31  24  75 S6        30.26S WCI  25
SOUTH BEND     CLOUDY    32  26  78 S7        30.26F WCI  26
GOSHEN         CLOUDY    30  27  88 S5        30.27S FOG     WCI  25
MONTICELLO*    CLOUDY    31  26  83 S5        30.26F WCI  26
ANGOLA*        CLOUDY    28  27  93 CALM      30.26S
FORT WAYNE     CLOUDY    30  26  85 S3        30.29S

$$
INZ028>050-211100-
CENTRAL INDIANA

CITY           SKY/WX    TMP DP  RH WIND       PRES   REMARKS
LAFAYETTE      CLOUDY    28  24  85 SE6       30.27F WCI  22
KOKOMO*        CLOUDY    30  27  86 S5        30.28S WCI  25
MUNCIE*        CLOUDY    24  21  88 CALM      30.28F FOG
INDIANAPOLIS   CLEAR     23  21  92 CALM      30.27F FOG

$$
MIZ043>046-050>051-056>058-064>065-071>073-077>080-211100-
SOUTHWEST LOWER MICHIGAN

CITY           SKY/WX    TMP DP  RH WIND       PRES   REMARKS
BATTLE CREEK   CLOUDY    30  27  88 S5        30.26S FOG     WCI  25
BENTON HARBOR  CLOUDY    30  26  85 S5        30.25F WCI  25
COLDWATER*     CLOUDY    30  28  92 MISG      30.26F FOG
HILLSDALE*     CLOUDY    29  27  93 CALM      30.25S FOG
HOLLAND        CLOUDY    33  27  78 S7        30.25F WCI  27
GRAND RAPIDS   CLOUDY    31  26  82 S8        30.25F HAZE    WCI  23
KALAMAZOO      CLOUDY    30  27  88 S5        30.26F FOG     WCI  25
STURGIS*       CLOUDY    28  28 100 S3        30.26S FOG
THREE RIVERS*  CLOUDY    29  28  94 CALM      30.27S FOG

$$
OHZ001>008-015>018-024>025-211100-
NORTHWEST OHIO

CITY           SKY/WX    TMP DP  RH WIND       PRES   REMARKS
DEFIANCE       CLOUDY    27  24  89 CALM      30.30S FOG
FINDLAY        PTCLDY    21  18  88 CALM      30.28S FOG
TOLEDO EXPRESS CLEAR     19  17  92 CALM      30.29S FOG
TOLEDO METCALF PTCLDY    24  21  88 CALM      30.31S FOG
LIMA           CLEAR     26  22  84 CALM      30.28S FOG

$$
AND FOR LAKE MICHIGAN COASTAL AND OPEN LAKE BUOY OBSERVATIONS

STATION/POSITION TEMP    WIND        PRES    VSBY  WAVE
                 AIR SEA DIR/SP/G                  HT/PER
                 (F)     (DEG/KT/KT) (MB)    (MI)  (FT/S)
CALUMET HARBOR    33     180/  5/ 11 1022.7F
SAINT JOSEPH      32     150/  2/  7 1025.4R

$$
&&



USA.gov is the U.S. government's official web portal to all federal, state and local government web resources and services.